Camden, AR

3:30 AM CST on December 14, 2017 (GMT -0600)
Harrell

Weather History for KCDH - February, 2013

Change the Weather History Date:

Friday, February 22, 2013

  Actual Average Record
Temperature  
Mean Temperature 44 °F -  
Max Temperature 53 °F 62 °F 87 °F (1982)
Min Temperature 35 °F 37 °F 15 °F (1963)
Degree Days  
Heating Degree Days 21    
Moisture  
Dew Point 36 °F    
Average Humidity 83    
Maximum Humidity 100    
Minimum Humidity 51    
Precipitation  
Precipitation 0.00 in - - ()
Sea Level Pressure  
Sea Level Pressure 30.04 in    
Wind  
Wind Speed 2 mph (NNW)    
Max Wind Speed 8 mph    
Max Gust Speed -    
Visibility 7 miles    
Events Fog    
Averages and records for this station are not official NWS values.
T = Trace of Precipitation, MM = Missing Value Source: NWS Daily Summary

Daily Weather History Graph

Daily Weather History Graph

Search for Another Location

Airport or City:

Trip Planner

Search our weather history database for the weather conditions in past years. The results will help you decide how hot, cold, wet, or windy it might be!

Date:

Astronomy

Feb. 22, 2013 Rise Set
Actual Time 6:47 AM CST 6:02 PM CST
Civil Twilight 6:22 AM CST 6:27 PM CST
Nautical Twilight 5:53 AM CST 6:56 PM CST
Astronomical Twilight 5:24 AM CST 7:25 PM CST
Moon 3:19 PM CST (2/22) 4:26 AM CST (2/22)
Length of Visible Light 12h 04m
Length of Day
11h 14m
Waxing Gibbous, 90% of the Moon is Illuminated
Feb 22
Waxing Gibbous
Feb 25
Full
Mar 4
Last Quarter
Mar 11
New
Mar 19
First Quarter

Hourly Weather History & Observations

Time (CST) Temp. Windchill Dew Point Humidity Pressure Visibility Wind Dir Wind Speed Gust Speed Precip Events Conditions
12:15 AM 39.2 °F - 37.4 °F 93% 29.93 in 1.5 mi Calm Calm - N/A   Overcast
12:35 AM 39.2 °F - 37.4 °F 93% 29.93 in 0.5 mi Calm Calm - N/A Fog Fog
1:15 AM 37.4 °F - 35.6 °F 93% 29.94 in 0.8 mi Calm Calm - N/A   Overcast
1:55 AM 37.4 °F - 35.6 °F 93% 29.96 in 0.2 mi Calm Calm - N/A Fog Fog
2:15 AM 37.4 °F 34.9 °F 35.6 °F 93% 29.97 in 0.2 mi SSW 3.5 mph - N/A   Overcast
2:35 AM 37.4 °F 34.9 °F 35.6 °F 93% 29.97 in 0.2 mi WSW 3.5 mph - N/A Fog Fog
2:55 AM 37.4 °F - 35.6 °F 93% 29.97 in 0.2 mi Calm Calm - N/A   Overcast
3:15 AM 37.4 °F 34.9 °F 35.6 °F 93% 29.97 in 0.2 mi NW 3.5 mph - N/A Fog Fog
3:35 AM 37.4 °F 31.4 °F 35.6 °F 93% 29.97 in 0.2 mi NNW 8.1 mph - N/A Fog Fog
4:15 AM 37.4 °F 34.9 °F 35.6 °F 93% 29.97 in 0.5 mi North 3.5 mph - N/A Fog Fog
4:35 AM 35.6 °F 29.9 °F 35.6 °F 100% 29.98 in 0.5 mi NNW 6.9 mph - N/A Fog Fog
4:55 AM 35.6 °F 30.7 °F 35.6 °F 100% 29.99 in 0.5 mi NNW 5.8 mph - N/A Fog Fog
5:15 AM 35.6 °F 29.9 °F 35.6 °F 100% 30.00 in 0.8 mi NNW 6.9 mph - N/A   Overcast
5:35 AM 35.6 °F 30.7 °F 33.8 °F 93% 30.03 in 2.5 mi NNW 5.8 mph - N/A   Overcast
5:55 AM 35.6 °F 32.8 °F 33.8 °F 93% 30.05 in 3.0 mi NW 3.5 mph - N/A   Overcast
6:15 AM 35.6 °F 31.7 °F 33.8 °F 93% 30.05 in 7.0 mi NNW 4.6 mph - N/A   Overcast
6:35 AM 35.6 °F - 33.8 °F 93% 30.07 in 8.0 mi Calm Calm - N/A   Overcast
7:15 AM 35.6 °F - 33.8 °F 93% 30.07 in 2.0 mi Calm Calm - N/A   Overcast
7:35 AM 35.6 °F 32.8 °F 33.8 °F 93% 30.07 in 2.0 mi NNW 3.5 mph - N/A   Overcast
8:15 AM 37.4 °F - 35.6 °F 93% 30.10 in 5.0 mi Calm Calm - N/A   Overcast
8:35 AM 37.4 °F - 35.6 °F 93% 30.11 in 6.0 mi Calm Calm - N/A   Overcast
8:55 AM 37.4 °F - 35.6 °F 93% 30.12 in 8.0 mi Calm Calm - N/A   Overcast
9:15 AM 39.2 °F 37.0 °F 35.6 °F 87% 30.12 in 9.0 mi West 3.5 mph - N/A   Overcast
9:35 AM 39.2 °F 37.0 °F 35.6 °F 87% 30.11 in 10.0 mi NNW 3.5 mph - N/A   Overcast
9:55 AM 39.2 °F 33.6 °F 35.6 °F 87% 30.11 in 10.0 mi NNW 8.1 mph - N/A   Overcast
10:15 AM 39.2 °F 35.0 °F 35.6 °F 87% 30.11 in 10.0 mi NNW 5.8 mph - N/A   Overcast
10:35 AM 39.2 °F 34.2 °F 35.6 °F 87% 30.10 in 10.0 mi NNW 6.9 mph - N/A   Overcast
10:55 AM 41.0 °F 38.0 °F 35.6 °F 81% 30.09 in 10.0 mi North 4.6 mph - N/A   Overcast
11:15 AM 41.0 °F 39.0 °F 35.6 °F 81% 30.12 in 10.0 mi NW 3.5 mph - N/A   Overcast
11:35 AM 41.0 °F 39.0 °F 35.6 °F 81% 30.11 in 10.0 mi West 3.5 mph - N/A   Overcast
12:15 PM 42.8 °F - 35.6 °F 76% 30.08 in 10.0 mi Calm Calm - N/A   Overcast
12:35 PM 44.6 °F 43.1 °F 37.4 °F 76% 30.09 in 10.0 mi NE 3.5 mph - N/A   Overcast
12:55 PM 44.6 °F - 37.4 °F 76% 30.08 in 10.0 mi Calm Calm - N/A   Overcast
1:15 PM 46.4 °F 45.2 °F 37.4 °F 71% 30.05 in 10.0 mi North 3.5 mph - N/A   Overcast
1:35 PM 48.2 °F - 37.4 °F 66% 30.03 in 10.0 mi WNW 3.5 mph - N/A   Overcast
1:55 PM 48.2 °F - 37.4 °F 66% 30.03 in 10.0 mi Calm Calm - N/A   Mostly Cloudy
2:15 PM 50.0 °F - 37.4 °F 62% 30.01 in 10.0 mi North 5.8 mph - N/A   Partly Cloudy
2:35 PM 50.0 °F - 37.4 °F 62% 30.01 in 10.0 mi North 8.1 mph - N/A   Clear
2:55 PM 50.0 °F - 37.4 °F 62% 30.01 in 10.0 mi North 4.6 mph - N/A   Clear
3:15 PM 50.0 °F - 37.4 °F 62% 30.01 in 10.0 mi Calm Calm - N/A   Clear
3:35 PM 51.8 °F - 35.6 °F 54% 30.01 in 10.0 mi NNE 4.6 mph - N/A   Clear
3:55 PM 53.6 °F - 35.6 °F 51% 30.02 in 10.0 mi NNW 3.5 mph - N/A   Clear
4:15 PM 50.0 °F - 35.6 °F 58% 30.01 in 10.0 mi Calm Calm - N/A   Mostly Cloudy
4:35 PM 50.0 °F - 35.6 °F 58% 30.02 in 10.0 mi Calm Calm - N/A   Scattered Clouds
5:15 PM 50.0 °F - 37.4 °F 62% 30.03 in 10.0 mi Calm Calm - N/A   Clear
5:35 PM 50.0 °F - 37.4 °F 62% 30.03 in 10.0 mi Calm Calm - N/A   Clear
6:15 PM 46.4 °F 45.2 °F 37.4 °F 71% 30.04 in 10.0 mi WNW 3.5 mph - N/A   Clear
6:35 PM 44.6 °F - 37.4 °F 76% 30.04 in 10.0 mi Calm Calm - N/A   Clear
6:55 PM 44.6 °F - 39.2 °F 81% 30.05 in 10.0 mi Calm Calm - N/A   Clear
7:15 PM 42.8 °F - 39.2 °F 87% 30.05 in 10.0 mi Calm Calm - N/A   Clear
7:35 PM 41.0 °F 39.0 °F 39.2 °F 93% 30.05 in 10.0 mi NW 3.5 mph - N/A   Clear
7:55 PM 41.0 °F 38.0 °F 39.2 °F 93% 30.05 in 10.0 mi NNW 4.6 mph - N/A   Clear
8:15 PM 42.8 °F 40.1 °F 37.4 °F 81% 30.06 in 10.0 mi NNW 4.6 mph - N/A   Clear
8:35 PM 42.8 °F 40.1 °F 35.6 °F 76% 30.06 in 10.0 mi North 4.6 mph - N/A   Clear
8:55 PM 41.0 °F 38.0 °F 35.6 °F 81% 30.07 in 10.0 mi North 4.6 mph - N/A   Clear
9:15 PM 41.0 °F 39.0 °F 35.6 °F 81% 30.07 in 10.0 mi North 3.5 mph - N/A   Clear
9:35 PM 39.2 °F 35.9 °F 35.6 °F 87% 30.08 in 10.0 mi North 4.6 mph - N/A   Clear
10:15 PM 39.2 °F 37.0 °F 35.6 °F 87% 30.08 in 10.0 mi NNE 3.5 mph - N/A   Clear
10:35 PM 37.4 °F - 35.6 °F 93% 30.08 in 10.0 mi Calm Calm - N/A   Clear
10:55 PM 37.4 °F 33.8 °F 33.8 °F 87% 30.08 in 10.0 mi NNW 4.6 mph - N/A   Clear
11:15 PM 37.4 °F 33.8 °F 33.8 °F 87% 30.09 in 10.0 mi NW 4.6 mph - N/A   Clear
11:35 PM 37.4 °F 34.9 °F 32.0 °F 81% 30.10 in 10.0 mi NNW 3.5 mph - N/A   Clear
11:55 PM 35.6 °F - 32.0 °F 87% 30.09 in 10.0 mi Calm Calm - N/A   Clear